Wind_Speed
50 50 50 51 51 51 51 52 52 52 53 54 55 55 56 56 57 58 58 59 59 60 60 61 60 60 59 59 59 58 58 58 58 58 57 57 57 57 56 55 55 56 56 55 55 54 53 53 54 55 55 56 56 56 56 56 56 55 55 55 54 53 53
50 51 51 51 52 52 53 54 54 55 55 56 57 57 57 58 58 59 59 59 60 60 60 61 61 61 60 60 60 59 59 59 59 58 58 57 57 56 55 54 53 54 53 53 54 54 54 55 55 56 56 56 56 56 56 56 56 56 55 54 54 53 52
52 52 52 53 53 54 55 56 56 57 57 58 58 58 58 59 59 59 59 60 60 59 60 60 61 60 60 60 60 59 59 59 59 59 59 58 57 56 55 53 51 51 52 52 54 55 56 57 57 57 56 56 56 56 56 56 56 55 54 54 53 53 52
53 54 54 55 55 56 57 58 58 59 59 59 59 59 59 59 59 59 60 60 60 59 59 60 60 60 60 60 60 60 59 59 59 59 59 58 57 55 53 51 50 50 51 52 54 57 58 58 57 57 57 56 56 55 55 55 54 54 54 53 53 53 52
55 56 57 57 57 58 59 59 60 60 61 61 60 60 59 59 60 60 60 60 59 59 59 59 60 59 59 59 60 59 59 59 58 58 57 56 55 53 51 50 50 50 50 52 55 57 58 58 58 58 58 57 56 55 54 54 54 53 53 53 52 52 51
57 57 58 59 59 60 60 60 61 61 61 61 60 60 60 60 60 60 60 60 59 59 58 59 59 58 58 59 59 59 58 57 56 55 55 54 52 51 51 51 51 51 51 53 55 57 58 59 59 59 58 57 55 54 54 54 53 53 53 52 51 51 51
59 59 59 60 60 60 60 60 60 60 59 59 58 58 59 59 59 60 60 59 58 58 57 57 57 57 57 57 57 56 55 54 53 53 52 52 52 52 52 52 52 52 52 53 55 56 58 59 59 58 58 57 55 55 55 54 53 52 51 50 50 50 51
59 59 59 59 59 58 58 57 57 57 57 56 56 57 57 58 58 59 59 58 58 57 56 56 56 55 55 54 53 52 51 51 51 52 52 53 53 53 52 52 51 52 53 54 56 57 59 59 59 58 58 57 57 57 56 54 51 50 50 49 50 51 52
57 57 56 56 55 55 54 54 54 54 54 54 55 55 56 57 57 57 58 57 57 56 55 54 53 52 51 50 50 50 50 51 52 53 54 54 54 53 52 51 51 52 54 56 57 58 59 59 60 59 59 59 58 56 53 50 50 50 50 50 51 52 52
52 52 52 52 52 51 52 52 52 52 53 53 53 54 54 55 55 55 55 55 55 54 53 52 51 50 50 50 50 51 53 54 55 56 56 55 54 53 52 52 52 54 55 56 58 59 59 60 60 60 59 58 56 52 50 49 50 50 50 51 52 53 53
49 49 49 50 50 50 50 51 51 52 52 52 52 52 52 52 52 52 52 52 52 51 51 51 51 51 51 52 53 54 55 56 56 57 56 56 55 54 53 53 53 54 55 56 58 59 59 59 59 58 57 55 53 51 50 50 50 50 51 53 54 55 54
48 48 48 48 49 49 49 50 50 49 49 49 49 50 50 50 50 50 50 50 50 51 51 52 52 53 53 54 54 55 55 56 56 56 55 55 55 55 54 54 53 54 55 56 57 58 58 57 57 55 55 53 51 50 49 49 50 51 52 53 54 55 55
46 46 47 47 47 47 47 47 47 47 47 47 47 48 48 49 49 49 50 50 51 52 52 53 54 54 54 54 54 55 55 55 55 55 55 55 54 54 54 54 54 54 55 55 56 57 58 57 56 55 55 52 50 49 49 50 51 51 52 54 55 55 55
44 45 45 45 45 45 45 45 45 45 46 46 46 47 47 48 49 49 50 50 51 52 52 53 53 54 54 54 54 54 54 55 55 55 55 55 55 55 55 55 55 55 56 56 57 58 58 56 55 55 53 50 49 49 50 51 51 51 52 54 56 56 55
43 43 43 44 44 44 44 44 44 44 44 45 45 46 47 47 48 49 49 50 50 51 52 52 53 53 53 54 54 54 54 55 55 55 56 56 56 56 56 56 56 56 56 56 57 56 55 54 53 52 50 49 50 51 51 51 52 53 54 56 57 57 57
43 43 43 43 43 43 44 44 44 44 44 45 45 45 46 46 47 48 49 50 50 50 50 51 52 52 53 53 53 54 54 55 56 56 56 57 57 57 57 57 57 55 54 55 55 54 52 52 51 50 50 51 51 51 51 52 53 54 56 57 58 57 56
42 42 43 43 43 43 43 43 43 44 44 44 44 45 45 45 45 46 47 48 49 49 49 49 50 51 52 52 52 53 54 55 55 56 56 56 56 55 55 56 55 53 53 52 52 51 51 50 50 50 51 51 52 52 52 53 56 57 56 57 57 57 55
40 40 41 41 41 41 41 41 42 42 42 42 43 43 43 44 44 44 45 46 47 48 49 49 49 49 50 50 51 51 52 52 54 54 54 54 53 53 53 53 52 51 50 49 48 49 49 50 50 51 51 52 53 53 54 56 57 56 55 56 56 56 54
38 38 39 39 39 39 39 39 40 40 40 40 40 41 41 41 42 42 43 44 45 46 47 47 48 49 49 49 49 49 50 50 52 53 52 51 51 51 51 50 48 47 47 46 46 47 48 49 50 50 52 53 54 54 56 58 57 55 55 55 55 54 53
36 36 36 36 36 37 37 37 37 37 38 38 38 38 38 39 39 40 41 41 42 43 44 45 46 47 47 48 48 48 48 48 50 51 50 48 49 49 48 46 44 44 45 45 46 47 48 50 51 52 54 55 56 56 56 57 57 56 55 54 53 53 53
34 34 34 34 34 34 35 35 35 35 36 36 36 36 37 37 38 38 39 39 40 41 42 42 43 44 45 45 46 46 46 46 46 46 46 46 47 46 44 43 43 45 45 47 48 49 51 52 54 55 56 56 57 56 55 55 55 55 54 53 52 51 51
33 33 33 33 33 34 34 35 35 35 35 35 36 36 36 37 37 38 39 40 40 40 40 41 42 42 42 43 44 44 44 44 44 44 44 46 47 46 45 46 47 48 49 51 52 53 55 56 56 56 56 56 55 55 54 53 53 52 52 52 51 50 50
33 33 33 33 33 34 34 35 35 35 35 35 35 35 35 36 36 37 38 40 40 41 41 41 41 41 41 41 42 43 43 44 44 44 45 46 46 46 47 48 50 51 52 53 54 55 56 57 56 56 55 54 54 53 52 51 51 50 50 50 50 50 49
33 33 33 33 32 33 33 34 34 34 34 34 34 34 34 34 35 36 37 38 40 41 41 42 42 42 42 42 42 43 44 45 46 46 46 47 47 47 47 49 51 53 54 54 55 56 56 56 55 54 53 52 50 50 49 49 49 49 48 48 48 48 48
33 34 34 34 34 32 31 32 32 33 33 34 34 33 34 35 35 36 37 39 40 41 42 43 44 45 45 45 46 46 47 47 48 47 48 48 50 50 51 51 52 53 55 56 57 57 57 56 55 53 51 49 47 47 47 48 48 47 47 47 47 47 47
34 34 35 35 34 33 31 31 31 32 32 33 34 35 35 36 37 37 39 40 41 42 43 44 45 46 47 47 48 49 49 50 49 49 49 49 50 50 50 51 51 52 54 56 57 58 58 57 55 53 51 49 48 48 48 48 47 47 46 46 46 46 47
35 35 35 35 33 32 32 32 32 32 33 34 35 36 37 37 38 39 41 42 43 43 44 45 45 46 47 47 48 49 51 51 51 50 50 50 50 51 51 50 50 50 51 53 54 55 56 56 55 55 53 51 50 49 47 47 47 47 46 45 45 46 47
34 35 35 35 33 33 33 33 33 33 33 34 36 37 38 39 39 41 42 44 44 44 44 44 45 45 46 47 48 49 50 50 51 51 51 51 51 51 51 51 51 51 51 52 52 53 54 54 55 55 54 53 51 49 47 46 45 46 45 45 45 46 47
36 36 36 36 36 36 37 36 36 35 34 35 37 38 39 40 41 42 44 45 44 43 43 43 44 44 45 46 48 49 49 50 50 51 51 51 52 51 51 51 51 51 52 52 52 52 53 53 53 54 54 54 53 51 49 47 47 46 46 46 47 49 49
37 38 39 38 38 39 39 40 39 38 37 38 38 39 41 42 43 44 46 45 44 43 44 45 44 44 44 45 46 47 48 48 49 50 50 51 51 52 52 52 52 51 51 52 52 53 53 52 53 54 55 55 55 53 52 51 50 50 50 50 51 51 51
38 39 39 40 40 40 40 41 41 40 40 40 41 42 44 44 43 44 45 44 43 43 45 46 47 47 46 46 46 46 47 47 48 48 49 49 50 50 50 51 51 51 50 51 52 53 53 53 53 54 55 56 56 55 55 54 54 53 53 53 54 54 53
38 38 38 39 41 42 42 43 43 42 43 43 43 46 47 44 43 44 45 44 44 45 46 47 48 48 49 49 49 49 49 48 48 48 49 49 49 49 49 49 50 49 49 50 51 51 52 53 53 54 55 56 56 56 56 55 55 55 55 55 55 55 55
37 38 38 39 40 41 43 44 44 44 44 44 46 47 47 45 44 45 46 46 46 47 47 48 49 49 50 50 51 51 51 51 51 51 51 51 51 50 50 49 49 49 49 50 49 50 51 51 52 52 53 54 54 55 55 55 55 54 54 54 54 54 54
35 37 38 39 39 40 41 42 42 43 44 45 46 47 46 45 46 46 47 47 48 48 48 49 49 50 50 51 51 52 53 53 53 53 53 53 53 52 52 51 50 50 50 50 50 50 50 50 50 51 51 51 51 51 52 52 53 52 51 51 51 51 50
34 36 38 39 39 40 40 40 41 42 44 45 46 46 46 46 46 46 46 46 47 48 49 49 49 50 50 51 51 52 53 53 54 54 54 54 54 54 54 54 53 52 51 51 51 51 50 50 50 50 50 50 50 50 50 51 51 51 50 50 49 49 48
37 37 38 39 40 40 40 40 40 41 42 44 45 46 47 47 47 47 47 47 47 48 49 49 50 50 50 51 51 51 52 53 54 54 54 54 55 55 55 55 55 54 54 53 52 51 51 50 50 50 50 51 51 51 51 51 50 50 50 49 49 49 48
Wind_Direction
273 274 274 274 274 274 274 274 275 276 276 276 276 276 276 275 274 274 273 272 270 269 267 266 265 264 264 263 262 262 263 263 263 263 262 260 258 257 255 254 254 256 258 260 261 262 262 263 263 263 263 264 264 264 265 265 265 265 266 266 266 267 267
275 275 275 275 275 275 276 276 276 277 277 277 277 277 276 275 275 274 273 272 270 269 267 266 265 264 263 262 261 261 261 262 262 262 261 260 258 257 255 254 254 255 257 258 260 261 262 262 262 262 261 261 262 263 263 263 264 264 265 265 266 266 266
274 275 275 275 275 276 276 277 277 277 277 277 277 276 276 275 274 273 272 271 270 268 266 265 264 263 262 261 260 260 260 260 260 260 260 259 258 256 255 254 253 254 256 258 260 261 261 261 261 260 260 260 260 260 261 262 262 263 264 265 265 265 265
276 276 276 276 276 276 277 277 277 277 277 277 276 276 275 274 273 272 271 270 269 268 266 265 264 263 262 260 259 259 259 259 259 259 259 258 257 256 255 254 253 255 257 258 260 260 260 260 260 259 259 259 259 259 259 261 261 262 263 264 264 264 265
277 278 278 277 277 277 277 278 278 277 277 277 276 275 274 273 272 271 270 269 268 267 266 265 264 263 262 260 260 260 259 259 259 258 258 258 257 256 255 254 255 257 259 259 259 260 260 260 259 259 258 258 258 259 259 260 261 261 262 263 263 264 265
279 279 279 279 278 278 278 278 277 277 276 276 275 274 273 272 271 271 270 269 268 267 266 265 264 263 262 261 261 261 261 260 259 258 257 256 256 255 255 256 257 258 259 259 259 259 260 259 259 259 259 259 259 259 259 259 259 260 261 262 264 265 267
279 279 278 278 278 277 277 276 275 275 274 274 273 272 272 271 270 270 270 269 268 267 266 265 264 263 262 262 262 262 261 260 258 257 256 255 255 256 257 258 259 259 259 259 259 259 259 260 260 259 259 259 258 258 258 258 259 260 262 264 265 265 267
278 277 277 276 276 275 275 274 274 273 273 272 271 270 270 270 269 269 269 268 268 267 266 265 264 263 263 262 262 261 260 258 256 255 255 255 256 258 259 259 259 259 259 259 259 259 259 260 260 259 259 258 257 257 258 260 261 262 263 263 264 265 267
276 276 275 275 275 274 274 274 273 273 272 271 270 269 269 268 268 268 268 268 267 266 266 265 264 263 262 261 260 259 258 256 256 256 256 257 257 258 259 259 260 260 259 259 259 259 259 259 259 260 259 259 258 259 260 261 261 261 262 263 264 265 267
276 275 275 274 274 273 273 273 272 272 271 270 269 268 268 267 267 267 267 267 267 266 266 265 264 263 262 261 259 258 258 257 257 257 257 257 258 258 259 259 260 259 259 259 258 258 259 259 260 260 259 259 259 259 259 259 260 262 263 264 264 266 268
276 275 274 274 273 272 272 272 271 271 270 269 269 268 268 267 267 267 267 267 266 266 266 265 264 263 262 261 261 260 259 259 259 258 258 258 258 258 259 259 259 258 258 257 257 258 258 258 259 259 258 257 257 257 258 259 261 262 263 263 265 266 268
276 275 275 274 273 273 272 271 271 270 270 269 269 268 268 267 267 266 266 266 265 265 265 264 263 263 262 262 261 261 261 260 260 260 259 259 259 259 259 259 258 257 256 256 256 257 257 258 258 258 257 257 256 257 258 260 261 261 263 264 266 268 269
277 276 275 275 274 273 272 272 271 270 270 269 268 268 267 267 266 265 265 265 264 264 263 263 263 263 263 262 262 262 262 262 261 261 261 260 260 260 260 259 258 256 255 255 256 256 257 258 258 257 257 257 257 257 258 259 260 262 264 265 267 268 269
279 278 277 276 275 274 273 272 272 271 269 269 268 267 266 266 266 265 264 264 264 264 263 263 263 263 263 263 263 263 263 263 263 262 262 261 261 261 261 260 259 258 257 256 257 258 260 260 258 258 258 257 256 257 258 259 261 262 264 265 266 266 266
280 279 279 278 277 276 275 274 273 272 271 269 268 267 266 266 266 265 265 264 263 263 263 263 263 263 263 263 263 263 263 263 263 263 262 262 262 262 261 261 260 260 259 259 259 260 260 260 258 257 256 255 255 256 258 260 261 263 263 264 265 265 265
281 280 279 279 278 277 276 276 275 274 272 271 270 269 268 267 266 266 266 266 265 264 263 263 263 263 263 263 263 263 263 263 263 263 262 262 262 262 262 262 262 261 260 259 260 260 259 257 256 255 254 254 255 257 259 261 262 262 263 264 265 266 266
282 281 280 280 279 278 277 277 276 275 274 273 272 271 270 269 268 267 267 267 267 266 265 264 263 263 262 263 263 263 263 263 263 262 263 263 263 263 263 263 263 262 260 259 260 259 258 256 254 254 254 255 256 258 259 261 262 263 263 264 265 265 265
283 282 282 281 280 280 279 278 277 276 275 275 274 273 272 271 270 269 268 268 268 268 268 267 265 264 263 263 262 261 261 262 262 262 262 263 263 263 263 264 263 262 261 260 258 257 257 256 255 254 255 256 257 259 260 261 262 263 263 262 263 264 264
285 284 283 283 282 281 281 279 279 278 278 277 277 276 276 275 274 273 272 271 270 270 270 270 269 268 267 266 264 263 262 261 262 263 263 263 264 263 263 263 263 262 261 258 255 254 254 255 255 257 258 259 260 261 262 262 262 261 260 261 263 264 265
287 286 285 284 284 283 282 281 281 280 280 279 279 278 278 277 276 276 275 274 273 272 271 270 270 269 269 268 267 266 264 263 263 264 265 264 264 264 264 263 262 260 258 256 254 253 254 254 255 257 259 261 262 262 262 262 262 262 261 262 263 264 265
289 288 287 286 286 284 283 283 282 281 281 280 280 279 279 278 277 277 276 275 274 273 272 271 270 269 268 268 268 267 266 265 265 266 266 265 263 263 262 261 259 257 256 255 255 255 255 256 256 258 259 260 261 262 262 262 263 264 264 264 264 264 265
292 291 290 289 288 286 285 284 284 283 282 282 281 281 280 279 278 277 276 275 274 273 272 271 270 270 269 269 268 268 268 267 267 266 266 265 264 263 262 260 259 258 258 258 258 258 258 258 258 258 258 258 259 260 260 261 262 263 264 265 266 266 265
292 291 290 289 287 287 286 285 285 285 284 283 282 282 281 280 279 278 277 277 276 275 274 272 271 270 269 268 268 268 268 267 266 265 265 265 265 266 266 266 265 263 261 260 260 259 258 258 257 257 257 257 258 258 259 260 261 262 262 263 264 264 265
292 291 290 289 287 287 287 287 287 288 287 286 285 283 282 280 279 277 276 275 275 275 274 273 272 270 269 267 265 264 263 263 262 262 262 262 261 260 260 261 262 263 263 262 261 259 258 258 258 258 258 258 258 258 259 258 258 258 259 260 261 261 262
294 292 291 290 289 289 290 290 290 290 289 288 286 284 282 280 278 277 276 274 273 273 272 272 271 270 269 268 266 264 263 262 261 260 260 259 258 257 256 255 256 258 260 261 262 263 263 262 262 262 261 261 260 258 257 257 257 256 257 257 258 259 261
295 294 292 292 292 293 294 293 291 289 288 287 286 285 283 282 280 279 277 276 274 273 272 272 271 271 270 270 269 268 267 265 264 262 261 260 259 259 259 258 257 257 258 260 262 264 266 267 266 265 264 262 260 258 257 257 257 257 257 257 258 259 260
296 295 294 294 296 296 295 293 291 290 290 289 288 287 285 284 283 281 279 277 276 275 274 274 273 273 273 272 272 271 270 269 268 266 264 263 262 261 260 260 259 259 258 259 260 262 264 265 266 265 264 262 260 258 257 257 257 257 257 257 258 258 259
297 296 296 298 298 296 294 293 292 292 292 291 289 287 286 285 284 282 280 279 279 279 279 278 278 277 276 274 273 271 271 270 270 269 267 266 264 263 262 261 259 258 258 257 257 258 259 260 262 263 264 264 263 261 259 257 256 256 256 256 256 256 256
301 300 300 301 300 298 297 296 295 295 296 294 292 291 289 288 285 283 282 282 283 283 282 281 279 277 275 274 273 272 271 270 269 269 268 267 265 264 262 261 259 258 257 257 256 256 256 257 258 260 261 262 263 263 262 260 259 258 257 257 256 255 254
306 305 304 304 303 302 301 300 300 301 300 297 296 294 291 289 288 288 288 289 289 288 285 282 279 276 274 273 272 272 272 271 270 269 268 267 266 265 263 262 260 258 257 256 255 255 255 254 255 255 256 257 259 260 261 261 260 259 259 258 257 256 255
307 306 306 305 304 303 303 302 303 303 301 300 298 294 291 291 292 292 291 291 290 287 285 283 281 279 277 274 272 271 270 269 269 268 268 267 266 265 264 263 262 260 258 256 254 253 253 252 251 251 252 253 255 256 257 257 258 258 257 257 257 257 256
306 306 306 306 306 306 305 304 304 303 302 301 298 294 294 296 296 293 291 289 287 285 283 282 281 280 279 278 276 274 272 269 268 266 265 265 264 264 264 263 263 262 259 257 255 253 252 251 250 249 249 251 252 253 254 255 255 256 256 256 257 257 257
307 307 307 306 306 305 305 304 304 303 302 300 297 296 297 298 296 293 291 289 287 285 284 282 281 280 279 278 277 275 274 272 270 268 266 264 263 262 261 261 261 261 260 258 257 255 254 252 251 249 249 248 249 250 251 252 253 254 255 256 257 257 258
307 306 306 305 304 303 303 303 302 301 300 298 296 297 297 296 294 292 291 290 289 287 285 283 282 280 279 277 276 275 274 273 271 270 268 267 265 264 262 260 259 259 259 258 258 257 255 254 253 252 251 250 249 249 249 250 251 252 253 255 256 257 258
308 308 307 306 305 305 304 303 302 301 299 298 298 298 297 295 294 292 291 290 289 288 286 285 283 281 280 278 276 275 274 272 271 269 268 267 266 265 264 263 261 259 258 258 257 257 256 255 255 254 253 252 252 251 250 250 251 251 252 253 254 256 257
312 311 310 309 308 308 306 305 304 302 301 300 300 299 298 297 295 294 292 290 289 287 286 285 284 283 281 280 278 276 275 273 272 270 268 267 265 264 263 262 262 261 259 258 257 256 255 255 254 254 253 253 253 253 252 252 252 253 253 253 254 255 256
Height
2952 2951 2950 2949 2948 2947 2947 2946 2945 2945 2943 2942 2942 2942 2941 2940 2939 2938 2939 2938 2937 2937 2936 2936 2936 2937 2938 2936 2935 2935 2934 2934 2934 2933 2933 2933 2933 2933 2934 2934 2933 2933 2934 2935 2935 2937 2939 2940 2941 2940 2941 2941 2941 2941 2941 2941 2942 2942 2943 2944 2945 2946 2947
2946 2944 2943 2941 2940 2939 2938 2938 2937 2936 2935 2934 2934 2933 2932 2932 2930 2930 2930 2929 2928 2929 2928 2927 2928 2929 2929 2927 2926 2926 2926 2925 2925 2924 2924 2925 2924 2925 2926 2927 2926 2926 2927 2928 2928 2929 2930 2931 2931 2931 2932 2933 2933 2933 2933 2933 2933 2934 2935 2936 2937 2938 2939
2939 2937 2935 2934 2933 2932 2930 2929 2929 2928 2927 2926 2925 2924 2924 2923 2922 2921 2921 2920 2920 2920 2919 2918 2919 2920 2920 2918 2917 2918 2917 2917 2916 2916 2916 2916 2916 2917 2918 2919 2919 2919 2920 2920 2920 2921 2921 2922 2922 2923 2924 2924 2925 2925 2924 2925 2926 2926 2927 2928 2929 2930 2931
2931 2929 2928 2926 2926 2924 2923 2921 2920 2919 2917 2917 2916 2915 2914 2914 2912 2912 2911 2911 2911 2911 2910 2909 2909 2911 2911 2909 2908 2909 2909 2908 2907 2907 2908 2908 2909 2909 2910 2912 2912 2912 2912 2912 2911 2911 2912 2913 2914 2914 2915 2915 2916 2916 2916 2917 2918 2919 2920 2921 2922 2923 2924
2922 2921 2919 2918 2917 2916 2914 2913 2911 2910 2908 2908 2907 2905 2905 2904 2903 2902 2902 2902 2902 2902 2901 2900 2901 2902 2901 2899 2899 2900 2900 2899 2899 2899 2900 2900 2901 2902 2903 2904 2904 2904 2904 2903 2903 2903 2903 2904 2905 2905 2906 2906 2907 2908 2909 2910 2911 2911 2912 2913 2914 2915 2916
2914 2912 2910 2909 2908 2907 2906 2904 2902 2901 2900 2899 2897 2896 2895 2895 2894 2893 2893 2893 2893 2893 2892 2892 2892 2893 2892 2891 2891 2892 2892 2891 2892 2892 2892 2893 2894 2894 2895 2895 2895 2896 2895 2894 2895 2895 2894 2895 2896 2897 2897 2899 2900 2900 2901 2901 2902 2903 2905 2906 2908 2908 2909
2905 2903 2902 2900 2899 2898 2897 2895 2894 2892 2891 2890 2889 2888 2887 2886 2885 2884 2884 2884 2884 2884 2884 2883 2884 2884 2883 2883 2883 2884 2884 2884 2884 2884 2885 2886 2886 2886 2886 2886 2886 2887 2886 2886 2886 2886 2886 2887 2888 2889 2890 2891 2892 2891 2891 2892 2894 2896 2899 2900 2900 2901 2900
2896 2895 2893 2891 2890 2889 2887 2886 2885 2884 2882 2881 2880 2879 2878 2878 2877 2876 2876 2876 2876 2876 2875 2875 2875 2875 2875 2875 2875 2876 2876 2876 2877 2877 2877 2878 2878 2877 2877 2878 2878 2878 2878 2878 2878 2878 2878 2879 2880 2881 2882 2883 2883 2882 2883 2886 2888 2890 2892 2892 2892 2892 2892
2887 2885 2884 2883 2881 2880 2879 2877 2876 2875 2874 2873 2872 2871 2870 2869 2869 2868 2868 2868 2868 2867 2867 2867 2867 2867 2867 2868 2868 2869 2869 2869 2869 2868 2869 2869 2869 2869 2869 2869 2869 2869 2870 2870 2869 2870 2870 2871 2872 2873 2874 2874 2875 2876 2879 2881 2881 2882 2883 2884 2884 2884 2884
2878 2877 2876 2874 2873 2872 2871 2869 2868 2867 2866 2865 2864 2863 2862 2861 2861 2860 2860 2860 2860 2859 2859 2859 2859 2859 2860 2860 2861 2861 2861 2860 2860 2860 2861 2861 2861 2861 2861 2861 2861 2861 2861 2861 2861 2862 2863 2863 2864 2865 2866 2867 2869 2871 2872 2873 2873 2874 2876 2875 2875 2875 2877
2870 2869 2868 2866 2866 2864 2863 2862 2861 2859 2859 2857 2856 2855 2854 2854 2853 2853 2852 2852 2852 2852 2852 2851 2851 2852 2852 2852 2852 2853 2853 2852 2852 2852 2853 2852 2852 2853 2853 2853 2853 2853 2853 2853 2853 2854 2855 2855 2856 2858 2859 2861 2862 2863 2864 2865 2866 2867 2867 2866 2866 2868 2869
2863 2861 2860 2859 2858 2856 2855 2854 2853 2852 2851 2850 2849 2848 2847 2846 2846 2845 2845 2845 2845 2844 2844 2844 2844 2844 2844 2844 2844 2845 2845 2844 2844 2844 2844 2844 2844 2845 2845 2846 2845 2845 2845 2845 2846 2847 2847 2848 2850 2851 2852 2854 2855 2856 2857 2858 2858 2858 2858 2859 2859 2860 2861
2855 2854 2852 2851 2850 2849 2848 2846 2845 2844 2843 2842 2841 2840 2839 2839 2839 2838 2838 2838 2837 2837 2836 2836 2836 2836 2836 2837 2837 2837 2837 2836 2836 2836 2836 2836 2836 2836 2837 2837 2837 2837 2837 2838 2838 2838 2840 2842 2843 2843 2845 2847 2848 2849 2850 2850 2850 2851 2851 2851 2851 2852 2853
2848 2847 2845 2844 2843 2842 2841 2839 2838 2837 2836 2835 2834 2833 2832 2831 2831 2830 2830 2830 2830 2829 2829 2828 2828 2828 2828 2829 2829 2829 2829 2828 2828 2828 2828 2828 2828 2829 2829 2829 2829 2829 2829 2830 2830 2831 2833 2835 2836 2836 2839 2840 2840 2841 2842 2842 2843 2843 2843 2843 2843 2844 2844
2842 2840 2839 2837 2836 2835 2834 2832 2831 2830 2829 2828 2827 2825 2824 2824 2823 2823 2822 2822 2822 2821 2821 2821 2820 2820 2820 2820 2821 2821 2821 2821 2820 2820 2820 2820 2820 2821 2821 2821 2822 2822 2822 2822 2823 2825 2827 2828 2829 2830 2831 2832 2832 2833 2834 2834 2835 2835 2835 2834 2834 2835 2835
2835 2833 2832 2831 2829 2828 2827 2825 2824 2823 2822 2821 2819 2818 2817 2816 2816 2815 2815 2814 2814 2814 2814 2813 2813 2813 2812 2812 2813 2813 2813 2813 2812 2812 2812 2812 2812 2813 2813 2813 2815 2815 2814 2815 2816 2818 2820 2820 2821 2822 2822 2823 2824 2825 2826 2827 2826 2826 2825 2825 2826 2827 2829
2828 2827 2825 2824 2822 2821 2820 2818 2817 2816 2815 2813 2812 2811 2810 2809 2809 2808 2808 2807 2806 2806 2806 2806 2806 2805 2805 2805 2806 2806 2805 2804 2804 2803 2804 2804 2805 2805 2805 2806 2808 2808 2807 2808 2809 2811 2812 2813 2814 2814 2814 2816 2816 2817 2819 2817 2816 2817 2818 2818 2819 2820 2821
2822 2820 2819 2817 2816 2814 2813 2812 2810 2809 2808 2807 2805 2804 2803 2802 2802 2801 2801 2800 2799 2799 2798 2798 2798 2798 2798 2798 2798 2798 2798 2797 2796 2796 2797 2797 2797 2798 2798 2799 2800 2800 2801 2802 2803 2803 2805 2805 2806 2806 2807 2808 2808 2809 2809 2808 2809 2810 2810 2810 2811 2812 2814
2816 2814 2812 2811 2809 2808 2807 2805 2804 2803 2802 2800 2799 2797 2796 2796 2795 2794 2794 2793 2793 2792 2792 2791 2791 2791 2791 2791 2792 2792 2792 2791 2789 2789 2790 2791 2790 2790 2791 2792 2793 2794 2795 2796 2796 2797 2798 2798 2799 2799 2799 2799 2800 2800 2799 2799 2801 2803 2802 2803 2804 2806 2806
2810 2808 2806 2805 2803 2802 2800 2799 2798 2796 2795 2794 2792 2791 2790 2789 2788 2788 2787 2787 2786 2786 2785 2785 2784 2784 2784 2784 2784 2784 2785 2784 2783 2782 2783 2784 2783 2783 2785 2786 2786 2787 2788 2788 2788 2790 2791 2791 2792 2792 2791 2790 2791 2791 2791 2791 2792 2794 2795 2797 2798 2799 2798
2804 2802 2801 2799 2797 2796 2794 2793 2792 2790 2789 2788 2786 2785 2784 2783 2782 2781 2780 2780 2780 2779 2779 2778 2778 2778 2777 2777 2777 2777 2777 2778 2777 2777 2777 2776 2776 2778 2780 2779 2779 2780 2781 2780 2781 2782 2783 2783 2784 2784 2784 2783 2783 2783 2784 2784 2785 2786 2787 2789 2791 2792 2791
2799 2797 2796 2794 2792 2790 2789 2787 2786 2785 2784 2782 2781 2780 2778 2777 2776 2775 2774 2773 2773 2772 2772 2771 2771 2771 2771 2771 2771 2771 2771 2771 2771 2772 2771 2770 2770 2771 2772 2772 2772 2773 2773 2773 2773 2774 2774 2774 2775 2776 2776 2777 2777 2777 2778 2778 2779 2780 2781 2781 2782 2783 2783
2794 2792 2791 2789 2788 2786 2784 2782 2781 2780 2779 2778 2776 2775 2774 2772 2771 2770 2768 2766 2766 2765 2765 2765 2764 2764 2764 2765 2765 2764 2764 2764 2765 2765 2764 2764 2764 2765 2764 2764 2763 2763 2763 2764 2764 2764 2764 2765 2767 2768 2769 2770 2770 2771 2772 2773 2773 2774 2774 2774 2774 2775 2775
2789 2787 2786 2785 2783 2782 2780 2778 2776 2775 2774 2772 2771 2770 2768 2767 2765 2764 2762 2761 2759 2758 2757 2757 2756 2756 2756 2757 2757 2757 2756 2756 2756 2757 2757 2758 2758 2758 2758 2756 2755 2753 2753 2753 2754 2754 2755 2757 2759 2760 2762 2764 2765 2765 2766 2766 2766 2766 2766 2767 2767 2767 2768
2784 2782 2781 2779 2778 2777 2776 2774 2772 2770 2768 2767 2765 2764 2762 2761 2759 2758 2756 2755 2754 2752 2751 2750 2749 2749 2748 2748 2748 2748 2748 2748 2749 2749 2750 2750 2750 2750 2750 2749 2748 2747 2745 2744 2744 2745 2746 2749 2751 2753 2755 2757 2758 2758 2757 2757 2758 2759 2759 2760 2760 2760 2760
2779 2777 2776 2774 2773 2772 2771 2770 2768 2766 2763 2761 2759 2758 2756 2755 2753 2752 2750 2749 2748 2747 2746 2744 2744 2743 2742 2742 2741 2741 2740 2741 2741 2742 2742 2742 2742 2742 2742 2742 2742 2741 2740 2739 2738 2738 2738 2740 2742 2744 2747 2749 2749 2749 2750 2750 2751 2752 2752 2753 2753 2753 2754
2774 2772 2770 2769 2768 2767 2765 2764 2762 2760 2759 2756 2754 2752 2750 2749 2747 2745 2744 2742 2741 2740 2739 2739 2738 2737 2737 2736 2735 2734 2733 2733 2733 2734 2734 2734 2734 2734 2734 2734 2734 2734 2734 2733 2733 2732 2732 2732 2733 2734 2736 2738 2740 2741 2743 2744 2745 2745 2746 2747 2747 2747 2747
2770 2767 2766 2764 2763 2761 2760 2758 2757 2755 2753 2751 2748 2746 2744 2742 2741 2738 2736 2734 2734 2733 2733 2732 2732 2731 2729 2728 2727 2726 2726 2725 2725 2725 2725 2726 2726 2726 2726 2726 2726 2725 2725 2726 2726 2726 2726 2726 2726 2726 2727 2728 2730 2732 2735 2736 2737 2738 2739 2740 2740 2739 2739
2764 2762 2760 2759 2757 2754 2753 2751 2750 2750 2748 2745 2742 2740 2737 2735 2733 2730 2728 2728 2728 2727 2726 2725 2724 2722 2721 2719 2718 2717 2717 2717 2716 2716 2716 2716 2716 2716 2716 2717 2717 2717 2717 2717 2718 2718 2719 2719 2719 2719 2720 2720 2721 2723 2725 2727 2728 2729 2731 2731 2731 2731 2733
2759 2756 2754 2753 2751 2749 2746 2744 2743 2742 2740 2738 2736 2733 2730 2728 2725 2722 2721 2722 2721 2719 2717 2716 2715 2714 2713 2711 2710 2709 2708 2708 2707 2707 2707 2707 2707 2707 2707 2707 2708 2708 2709 2709 2709 2710 2711 2711 2712 2712 2712 2713 2713 2715 2717 2718 2719 2721 2722 2722 2722 2723 2725
2755 2752 2750 2747 2745 2743 2741 2739 2737 2735 2733 2731 2729 2725 2722 2721 2720 2717 2715 2714 2713 2711 2708 2706 2704 2704 2703 2702 2701 2701 2700 2699 2698 2698 2697 2697 2697 2698 2698 2698 2699 2700 2701 2701 2701 2701 2702 2702 2703 2704 2704 2705 2706 2707 2709 2710 2711 2712 2713 2714 2714 2716 2718
2751 2749 2746 2743 2740 2737 2734 2732 2730 2728 2726 2724 2720 2716 2714 2715 2714 2710 2707 2706 2705 2702 2700 2698 2696 2694 2693 2692 2691 2691 2690 2690 2689 2689 2688 2688 2688 2688 2689 2689 2689 2691 2692 2692 2692 2693 2693 2694 2695 2696 2697 2698 2699 2700 2700 2701 2702 2703 2704 2705 2706 2707 2709
2747 2744 2742 2739 2736 2733 2729 2726 2724 2721 2719 2716 2712 2709 2708 2708 2705 2702 2699 2697 2696 2694 2691 2689 2687 2686 2684 2683 2681 2680 2679 2679 2679 2679 2679 2678 2678 2679 2679 2680 2681 2681 2681 2682 2683 2684 2685 2686 2687 2688 2689 2690 2691 2692 2692 2693 2694 2695 2696 2697 2698 2699 2701
2744 2741 2737 2734 2732 2729 2726 2722 2719 2716 2712 2709 2705 2703 2702 2700 2697 2694 2691 2688 2686 2684 2682 2680 2679 2677 2675 2674 2672 2671 2669 2668 2668 2668 2668 2668 2668 2669 2669 2671 2672 2673 2673 2674 2675 2676 2677 2678 2679 2680 2682 2683 2684 2685 2686 2686 2687 2688 2689 2690 2691 2693 2694
2740 2737 2733 2729 2726 2723 2720 2717 2714 2710 2706 2702 2698 2696 2694 2692 2689 2687 2684 2681 2678 2675 2673 2671 2669 2668 2666 2664 2663 2661 2660 2659 2658 2658 2658 2658 2658 2659 2659 2660 2662 2663 2664 2665 2666 2667 2668 2670 2671 2672 2674 2675 2676 2677 2678 2679 2680 2682 2683 2684 2685 2687 2688
2734 2731 2727 2723 2720 2717 2714 2711 2708 2704 2700 2696 2692 2689 2686 2683 2681 2678 2676 2674 2671 2668 2666 2663 2660 2658 2657 2655 2653 2652 2650 2649 2648 2647 2648 2648 2648 2648 2649 2650 2651 2652 2654 2655 2657 2658 2660 2662 2663 2664 2666 2667 2668 2670 2671 2672 2674 2675 2676 2678 2679 2680 2682